| time (UTC) | temp F | wind direction | speed MPH | gust MPH | rain 1hr in | rain 24hr in | rain mn in | humidity % | barometer mb |
| 20260504221854 | 68 | 250 | 17.0 | 22.0 | 0.00 | 0.00 | 0.00 | 42 | 1007.1 |
| 20260504221350 | 68 | 244 | 9.0 | 10.0 | 0.00 | 0.00 | 0.00 | 47 | 1006.9 |
| 20260504220848 | 68 | 281 | 19.0 | 21.0 | 0.00 | 0.00 | 0.00 | 40 | 1007.0 |
| 20260504220344 | 68 | 282 | 14.0 | 19.0 | 0.00 | 0.00 | 0.00 | 40 | 1007.2 |
| 20260504215842 | 67 | 235 | 12.0 | 14.0 | 0.00 | 0.00 | 0.00 | 41 | 1007.2 |
| 20260504215338 | 67 | 261 | 10.0 | 12.0 | 0.00 | 0.00 | 0.00 | 41 | 1007.1 |
| 20260504214834 | 67 | 220 | 7.0 | 10.0 | 0.00 | 0.00 | 0.00 | 41 | 1007.0 |
| 20260504214331 | 67 | 232 | 16.0 | 19.0 | 0.00 | 0.00 | 0.00 | 38 | 1007.2 |
| 20260504213828 | 68 | 287 | 13.0 | 19.0 | 0.00 | 0.00 | 0.00 | 41 | 1007.2 |
| 20260504213323 | 69 | 240 | 16.0 | 19.0 | 0.00 | 0.00 | 0.00 | 39 | 1007.0 |
| 20260504212821 | 68 | 349 | 5.0 | 7.0 | 0.00 | 0.00 | 0.00 | 41 | 1007.0 |
| 20260504212317 | 67 | 258 | 7.0 | 14.0 | 0.00 | 0.00 | 0.00 | 43 | 1006.9 |
| 20260504211815 | 68 | 277 | 12.0 | 19.0 | 0.00 | 0.00 | 0.00 | 46 | 1007.1 |
| 20260504211311 | 67 | 260 | 11.0 | 21.0 | 0.00 | 0.00 | 0.00 | 39 | 1007.0 |
| 20260504210809 | 67 | 268 | 15.0 | 17.0 | 0.00 | 0.00 | 0.00 | 39 | 1007.0 |
| 20260504210306 | 67 | 296 | 17.0 | 26.0 | 0.00 | 0.00 | 0.00 | 39 | 1007.2 |
| 20260504205803 | 67 | 251 | 13.0 | 19.0 | 0.00 | 0.00 | 0.00 | 44 | 1007.0 |
| 20260504205300 | 68 | 164 | 3.0 | 7.0 | 0.00 | 0.00 | 0.00 | 39 | 1007.0 |
| 20260504204758 | 68 | 194 | 3.0 | 7.0 | 0.00 | 0.00 | 0.00 | 40 | 1006.9 |
| 20260504204256 | 69 | 30 | 8.0 | 12.0 | 0.00 | 0.00 | 0.00 | 39 | 1006.7 |
| 20260504203756 | 70 | 289 | 9.0 | 10.0 | 0.00 | 0.00 | 0.00 | 35 | 1007.1 |
| 20260504203252 | 68 | 233 | 9.0 | 14.0 | 0.00 | 0.00 | 0.00 | 42 | 1006.7 |
| 20260504202747 | 68 | 188 | 5.0 | 7.0 | 0.00 | 0.00 | 0.00 | 39 | 1006.7 |
| 20260504202244 | 68 | 237 | 16.0 | 19.0 | 0.00 | 0.00 | 0.00 | 39 | 1007.1 |
| 20260504201741 | 67 | 230 | 14.0 | 17.0 | 0.00 | 0.00 | 0.00 | 41 | 1007.2 |
| 20260504201238 | 68 | 240 | 21.0 | 24.0 | 0.00 | 0.00 | 0.00 | 41 | 1007.1 |
| 20260504200736 | 68 | 260 | 13.0 | 19.0 | 0.00 | 0.00 | 0.00 | 42 | 1007.1 |
| 20260504200232 | 68 | 248 | 11.0 | 14.0 | 0.00 | 0.00 | 0.00 | 40 | 1006.9 |
| 20260504195729 | 68 | 267 | 7.0 | 10.0 | 0.00 | 0.00 | 0.00 | 43 | 1007.2 |
| 20260504195225 | 67 | 217 | 15.0 | 17.0 | 0.00 | 0.00 | 0.00 | 39 | 1007.1 |
| 20260504194722 | 67 | 236 | 19.0 | 24.0 | 0.00 | 0.00 | 0.00 | 42 | 1007.2 |
| 20260504194218 | 66 | 219 | 16.0 | 17.0 | 0.00 | 0.00 | 0.00 | 41 | 1007.1 |
| 20260504193714 | 67 | 218 | 13.0 | 17.0 | 0.00 | 0.00 | 0.00 | 43 | 1007.2 |
| 20260504193212 | 68 | 197 | 12.0 | 17.0 | 0.00 | 0.00 | 0.00 | 42 | 1007.1 |
| 20260504192710 | 67 | 273 | 12.0 | 21.0 | 0.00 | 0.00 | 0.00 | 44 | 1007.3 |
| 20260504192208 | 67 | 243 | 17.0 | 22.0 | 0.00 | 0.00 | 0.00 | 44 | 1007.4 |
| 20260504191706 | 67 | 262 | 9.0 | 15.0 | 0.00 | 0.00 | 0.00 | 43 | 1007.2 |
| 20260504191203 | 68 | 194 | 12.0 | 19.0 | 0.00 | 0.00 | 0.00 | 42 | 1007.1 |
| 20260504190658 | 68 | 251 | 13.0 | 14.0 | 0.00 | 0.00 | 0.00 | 44 | 1007.1 |
| 20260504190155 | 67 | 214 | 7.0 | 9.0 | 0.00 | 0.00 | 0.00 | 41 | 1007.1 |
| 20260504185651 | 66 | 270 | 7.0 | 10.0 | 0.00 | 0.00 | 0.00 | 44 | 1007.4 |
| 20260504185148 | 68 | 235 | 8.0 | 10.0 | 0.00 | 0.00 | 0.00 | 39 | 1007.2 |
| 20260504184644 | 67 | 188 | 10.0 | 15.0 | 0.00 | 0.00 | 0.00 | 44 | 1007.3 |
| 20260504184139 | 67 | 239 | 11.0 | 17.0 | 0.00 | 0.00 | 0.00 | 42 | 1007.3 |
| 20260504183636 | 66 | 253 | 8.0 | 10.0 | 0.00 | 0.00 | 0.00 | 42 | 1007.2 |
| 20260504183134 | 66 | 261 | 14.0 | 17.0 | 0.00 | 0.00 | 0.00 | 42 | 1007.2 |
| 20260504182631 | 66 | 232 | 10.0 | 10.0 | 0.00 | 0.00 | 0.00 | 40 | 1007.4 |
| 20260504182129 | 65 | 232 | 16.0 | 24.0 | 0.00 | 0.00 | 0.00 | 46 | 1007.6 |
| 20260504181626 | 66 | 254 | 8.0 | 17.0 | 0.00 | 0.00 | 0.00 | 41 | 1007.5 |
| 20260504181123 | 66 | 291 | 9.0 | 10.0 | 0.00 | 0.00 | 0.00 | 40 | 1007.5 |
| 20260504180622 | 66 | 253 | 15.0 | 24.0 | 0.00 | 0.00 | 0.00 | 39 | 1007.4 |
| 20260504180121 | 66 | 232 | 10.0 | 12.0 | 0.00 | 0.00 | 0.00 | 40 | 1007.3 |
| 20260504175618 | 65 | 263 | 11.0 | 15.0 | 0.00 | 0.00 | 0.00 | 43 | 1007.5 |
| 20260504175114 | 65 | 277 | 19.0 | 22.0 | 0.00 | 0.00 | 0.00 | 39 | 1007.5 |
| 20260504174613 | 65 | 258 | 14.0 | 15.0 | 0.00 | 0.00 | 0.00 | 41 | 1007.5 |
| 20260504174109 | 65 | 255 | 20.0 | 22.0 | 0.00 | 0.00 | 0.00 | 43 | 1007.6 |
| 20260504173606 | 66 | 198 | 11.0 | 12.0 | 0.00 | 0.00 | 0.00 | 43 | 1007.5 |
| 20260504173104 | 65 | 321 | 13.0 | 14.0 | 0.00 | 0.00 | 0.00 | 43 | 1007.4 |
| 20260504172559 | 64 | 243 | 10.0 | 12.0 | 0.00 | 0.00 | 0.00 | 45 | 1007.5 |
| 20260504172056 | 65 | 233 | 20.0 | 26.0 | 0.00 | 0.00 | 0.00 | 39 | 1007.6 |
| 20260504171553 | 64 | 233 | 19.0 | 26.0 | 0.00 | 0.00 | 0.00 | 40 | 1007.9 |
| 20260504171050 | 65 | 253 | 10.0 | 15.0 | 0.00 | 0.00 | 0.00 | 41 | 1007.5 |
| 20260504170545 | 64 | 216 | 17.0 | 19.0 | 0.00 | 0.00 | 0.00 | 41 | 1007.5 |
| 20260504150930 | 61 | 231 | 20.0 | 26.0 | 0.00 | 0.00 | 0.00 | 48 | 1008.4 |
| 20260504150426 | 60 | 237 | 8.0 | 9.0 | 0.00 | 0.00 | 0.00 | 47 | 1008.4 |
| 20260504140853 | 58 | 303 | 7.0 | 10.0 | 0.00 | 0.00 | 0.00 | 55 | 1009.2 |
| 20260504140349 | 57 | 268 | 12.0 | 14.0 | 0.00 | 0.00 | 0.00 | 56 | 1009.7 |
| 20260504130818 | 54 | 284 | 12.0 | 21.0 | 0.00 | 0.00 | 0.00 | 62 | 1010.2 |
| 20260504130314 | 54 | 240 | 13.0 | 15.0 | 0.00 | 0.00 | 0.00 | 60 | 1009.8 |
| 20260504120237 | 49 | 145 | 6.0 | 7.0 | 0.00 | 0.00 | 0.00 | 69 | 1010.6 |
| 20260504110705 | 49 | 212 | 9.0 | 15.0 | 0.00 | 0.00 | 0.00 | 69 | 1010.8 |
| 20260504110201 | 48 | 211 | 9.0 | 10.0 | 0.00 | 0.00 | 0.00 | 70 | 1010.7 |
| 20260504100125 | 47 | 179 | 6.0 | 7.0 | 0.00 | 0.00 | 0.00 | 73 | 1010.4 |
| 20260504081518 | 43 | 132 | 2.0 | 2.0 | 0.00 | 0.00 | 0.00 | 78 | 1010.5 |
| 20260504081013 | 44 | 97 | 2.0 | 2.0 | 0.00 | 0.00 | 0.00 | 74 | 1010.5 |
| 20260504080510 | 43 | 57 | 2.0 | 3.0 | 0.00 | 0.00 | 0.00 | 76 | 1010.4 |
| 20260504050317 | 34 | 140 | 0.0 | 2.0 | 0.00 | 0.00 | 0.00 | 92 | 1010.5 |
| 20260504045814 | 33 | 154 | 0.0 | 0.0 | 0.00 | 0.00 | 0.00 | 92 | 1010.5 |
| 20260504045309 | 33 | 155 | 0.0 | 0.0 | 0.00 | 0.00 | 0.00 | 92 | 1010.4 |
| 20260504044806 | 34 | 136 | 1.0 | 2.0 | 0.00 | 0.00 | 0.00 | 92 | 1010.3 |
| 20260504044304 | 33 | 153 | 0.0 | 0.0 | 0.00 | 0.00 | 0.00 | 92 | 1010.4 |
| 20260504043801 | 34 | 63 | 2.0 | 2.0 | 0.00 | 0.00 | 0.00 | 92 | 1010.5 |
| 20260504043258 | 34 | 150 | 0.0 | 0.0 | 0.00 | 0.00 | 0.00 | 91 | 1010.6 |
| 20260504042755 | 34 | 152 | 0.0 | 0.0 | 0.00 | 0.00 | 0.00 | 91 | 1010.4 |
| 20260504042251 | 34 | 137 | 0.0 | 2.0 | 0.00 | 0.00 | 0.00 | 91 | 1010.5 |
| 20260504041748 | 34 | 142 | 1.0 | 2.0 | 0.00 | 0.00 | 0.00 | 90 | 1010.6 |
| 20260504041244 | 35 | 101 | 2.0 | 2.0 | 0.00 | 0.00 | 0.00 | 90 | 1010.5 |
| 20260504040740 | 35 | 94 | 2.0 | 2.0 | 0.00 | 0.00 | 0.00 | 89 | 1010.6 |
| 20260504040238 | 36 | 109 | 2.0 | 2.0 | 0.00 | 0.00 | 0.00 | 89 | 1010.4 |
| 20260504035733 | 36 | 153 | 0.0 | 0.0 | 0.00 | 0.00 | 0.00 | 89 | 1010.2 |
| 20260504035231 | 36 | 130 | 2.0 | 2.0 | 0.00 | 0.00 | 0.00 | 89 | 1010.3 |
| 20260504034728 | 36 | 99 | 2.0 | 3.0 | 0.00 | 0.00 | 0.00 | 89 | 1009.9 |
| 20260504034225 | 36 | 116 | 2.0 | 2.0 | 0.00 | 0.00 | 0.00 | 88 | 1010.2 |
| 20260504033723 | 37 | 141 | 0.0 | 2.0 | 0.00 | 0.00 | 0.00 | 87 | 1010.3 |
| 20260504033221 | 37 | 145 | 0.0 | 0.0 | 0.00 | 0.00 | 0.00 | 87 | 1010.4 |
| 20260504032717 | 37 | 138 | 2.0 | 2.0 | 0.00 | 0.00 | 0.00 | 87 | 1010.0 |
| 20260504032214 | 37 | 148 | 0.0 | 2.0 | 0.00 | 0.00 | 0.00 | 86 | 1010.2 |
| 20260504031711 | 37 | 125 | 1.0 | 2.0 | 0.00 | 0.00 | 0.00 | 85 | 1010.0 |
| 20260504031208 | 37 | 153 | 0.0 | 0.0 | 0.00 | 0.00 | 0.00 | 84 | 1010.0 |
| 20260504030704 | 37 | 150 | 0.0 | 0.0 | 0.00 | 0.00 | 0.00 | 84 | 1010.0 |
| 20260504030202 | 38 | 150 | 0.0 | 0.0 | 0.00 | 0.00 | 0.00 | 83 | 1009.9 |
| 20260504025658 | 38 | 148 | 0.0 | 0.0 | 0.00 | 0.00 | 0.00 | 83 | 1010.0 |
| 20260504025155 | 38 | 147 | 0.0 | 0.0 | 0.00 | 0.00 | 0.00 | 82 | 1010.0 |
| 20260504024652 | 38 | 148 | 0.0 | 0.0 | 0.00 | 0.00 | 0.00 | 81 | 1010.0 |
| 20260504024148 | 39 | 133 | 1.0 | 2.0 | 0.00 | 0.00 | 0.00 | 81 | 1009.9 |
| 20260504023645 | 39 | 148 | 0.0 | 2.0 | 0.00 | 0.00 | 0.00 | 79 | 1010.2 |
| 20260504023141 | 39 | 148 | 0.0 | 0.0 | 0.00 | 0.00 | 0.00 | 78 | 1010.2 |
| 20260504022637 | 39 | 139 | 1.0 | 2.0 | 0.00 | 0.00 | 0.00 | 77 | 1010.2 |
| 20260504022133 | 39 | 128 | 2.0 | 2.0 | 0.00 | 0.00 | 0.00 | 76 | 1010.2 |
| 20260504021632 | 39 | 159 | 0.0 | 0.0 | 0.00 | 0.00 | 0.00 | 75 | 1010.3 |
| 20260504021128 | 40 | 145 | 0.0 | 2.0 | 0.00 | 0.00 | 0.00 | 75 | 1010.0 |
| 20260504020625 | 40 | 138 | 1.0 | 2.0 | 0.00 | 0.00 | 0.00 | 74 | 1010.0 |
| 20260504020121 | 41 | 121 | 2.0 | 2.0 | 0.00 | 0.00 | 0.00 | 74 | 1009.9 |
| 20260504015618 | 41 | 153 | 1.0 | 2.0 | 0.00 | 0.00 | 0.00 | 72 | 1009.8 |
| 20260504015114 | 41 | 154 | 0.0 | 0.0 | 0.00 | 0.00 | 0.00 | 71 | 1009.9 |
| 20260504014610 | 42 | 129 | 2.0 | 2.0 | 0.00 | 0.00 | 0.00 | 72 | 1010.2 |
| 20260504014107 | 43 | 83 | 2.0 | 3.0 | 0.00 | 0.00 | 0.00 | 70 | 1010.2 |
| 20260504013605 | 45 | 187 | 1.0 | 2.0 | 0.00 | 0.00 | 0.00 | 65 | 1009.9 |
| 20260504013102 | 46 | 197 | 2.0 | 2.0 | 0.00 | 0.00 | 0.00 | 65 | 1010.0 |
| 20260504012559 | 46 | 229 | 4.0 | 5.0 | 0.00 | 0.00 | 0.00 | 61 | 1009.9 |
| 20260504012057 | 46 | 232 | 4.0 | 5.0 | 0.00 | 0.00 | 0.00 | 63 | 1009.7 |
| 20260504011553 | 46 | 241 | 3.0 | 3.0 | 0.00 | 0.00 | 0.00 | 66 | 1009.6 |
| 20260504011049 | 46 | 252 | 3.0 | 3.0 | 0.00 | 0.00 | 0.00 | 65 | 1009.7 |
| 20260504010545 | 46 | 234 | 3.0 | 3.0 | 0.00 | 0.00 | 0.00 | 64 | 1009.6 |
| 20260504010042 | 45 | 217 | 2.0 | 3.0 | 0.00 | 0.00 | 0.00 | 64 | 1009.6 |
| 20260504005538 | 45 | 193 | 1.0 | 2.0 | 0.00 | 0.00 | 0.00 | 62 | 1009.6 |
| 20260504005036 | 46 | 247 | 3.0 | 3.0 | 0.00 | 0.00 | 0.00 | 63 | 1009.4 |
| 20260504004533 | 46 | 190 | 1.0 | 2.0 | 0.00 | 0.00 | 0.00 | 60 | 1009.5 |
| 20260504004030 | 47 | 197 | 2.0 | 3.0 | 0.00 | 0.00 | 0.00 | 63 | 1009.3 |
| 20260504003526 | 47 | 224 | 3.0 | 5.0 | 0.00 | 0.00 | 0.00 | 65 | 1009.4 |
| 20260504003023 | 46 | 263 | 3.0 | 5.0 | 0.00 | 0.00 | 0.00 | 66 | 1009.3 |
| 20260504002520 | 46 | 191 | 0.0 | 0.0 | 0.00 | 0.00 | 0.00 | 62 | 1009.1 |
| 20260504002018 | 46 | 168 | 0.0 | 0.0 | 0.00 | 0.00 | 0.00 | 59 | 1009.1 |
| 20260504001515 | 46 | 115 | 1.0 | 2.0 | 0.00 | 0.00 | 0.00 | 58 | 1009.0 |
| 20260504001011 | 46 | 142 | 2.0 | 2.0 | 0.00 | 0.00 | 0.00 | 55 | 1008.9 |
| 20260504000509 | 47 | 145 | 1.0 | 2.0 | 0.00 | 0.00 | 0.00 | 54 | 1008.9 |
| 20260504000006 | 47 | 59 | 5.0 | 5.0 | 0.00 | 0.00 | 0.00 | 55 | 1008.8 |
| 20260503235504 | 47 | 48 | 3.0 | 5.0 | 0.00 | 0.00 | 0.00 | 53 | 1008.9 |
| 20260503235001 | 47 | 214 | 2.0 | 3.0 | 0.00 | 0.00 | 0.00 | 56 | 1008.8 |
| 20260503234458 | 47 | 36 | 2.0 | 3.0 | 0.00 | 0.00 | 0.00 | 55 | 1008.8 |
| 20260503233956 | 48 | 193 | 2.0 | 2.0 | 0.00 | 0.00 | 0.00 | 53 | 1008.7 |
| 20260503233452 | 48 | 159 | 0.0 | 2.0 | 0.00 | 0.00 | 0.00 | 54 | 1008.7 |
| 20260503232948 | 48 | 68 | 3.0 | 3.0 | 0.00 | 0.00 | 0.00 | 54 | 1008.5 |
| 20260503232446 | 48 | 159 | 4.0 | 5.0 | 0.00 | 0.00 | 0.00 | 53 | 1008.6 |
| 20260503231944 | 49 | 59 | 8.0 | 10.0 | 0.00 | 0.00 | 0.00 | 52 | 1008.5 |
| 20260503231441 | 49 | 213 | 2.0 | 3.0 | 0.00 | 0.00 | 0.00 | 55 | 1008.4 |
| 20260503230937 | 49 | 64 | 5.0 | 10.0 | 0.00 | 0.00 | 0.00 | 52 | 1008.3 |
| 20260503230434 | 49 | 19 | 4.0 | 5.0 | 0.00 | 0.00 | 0.00 | 50 | 1008.3 |
| 20260503225932 | 49 | 158 | 2.0 | 3.0 | 0.00 | 0.00 | 0.00 | 48 | 1008.2 |
| 20260503225428 | 49 | 328 | 3.0 | 3.0 | 0.00 | 0.00 | 0.00 | 49 | 1008.2 |
| 20260503224924 | 50 | 257 | 3.0 | 7.0 | 0.00 | 0.00 | 0.00 | 48 | 1008.3 |
| 20260503224421 | 50 | 183 | 2.0 | 3.0 | 0.00 | 0.00 | 0.00 | 51 | 1008.2 |
| 20260503223919 | 49 | 337 | 4.0 | 5.0 | 0.00 | 0.00 | 0.00 | 48 | 1008.0 |
| 20260503223416 | 49 | 54 | 5.0 | 7.0 | 0.00 | 0.00 | 0.00 | 49 | 1007.9 |
| 20260503222917 | 50 | 25 | 5.0 | 7.0 | 0.00 | 0.00 | 0.00 | 46 | 1007.8 |
| 20260503222415 | 50 | 36 | 2.0 | 3.0 | 0.00 | 0.00 | 0.00 | 47 | 1008.0 |